Vertical_Velocity
3 -4 0 1 0 4 0 -3 -2 3 9 9 3 -3 -10 -8 1 4 6 7 4 -0 -0 2 0 -1 -1 -2 0 1 1 -1 -2 -1 4 -1 -1 -1 -2 -1 0 0 -1 -0 1 0 -6 -2 2 -1 1 2 5 2
2 5 5 3 -5 -1 5 -1 5 -4 5 3 11 -11 19 32 21 16 5 9 5 1 2 2 -0 -2 2 -1 1 1 -1 -0 -5 0 4 1 -2 -1 -1 -3 -0 -1 1 -1 -4 -4 5 0 -3 -1 -0 -1 -1 -0
-3 1 2 3 1 3 -4 2 -6 4 4 24 -10 -27 57 5 11 5 7 6 4 1 9 -0 0 -2 1 -0 1 -1 2 0 -1 -1 3 2 -1 -1 -2 -2 -2 -3 0 -2 -0 -2 2 3 2 2 -1 -2 -1 3
-3 -3 -3 2 -3 -5 -2 -7 4 1 -6 -3 -2 25 -11 10 10 10 6 13 8 4 -2 1 1 -6 -2 1 1 0 3 4 -2 -1 1 2 2 -1 -2 -2 -5 7 1 1 -1 0 -1 -2 -0 -2 0 -1 -2 -0
-1 -6 -6 4 3 -7 -3 -7 -1 -5 -8 -1 -1 10 10 39 11 21 -2 -3 4 3 1 -1 3 -3 -0 -1 0 1 2 3 -2 -0 -3 3 1 1 -0 -5 -1 1 1 -0 -2 -1 -1 -1 -2 -1 2 1 -0 -0
0 -2 -3 -0 -0 -2 -10 -3 -1 7 -2 -1 1 15 9 7 38 2 32 2 5 4 4 2 2 -2 -2 1 2 1 3 1 -2 1 -1 -2 2 2 -1 -5 3 1 -1 -1 1 1 -1 0 -0 -1 -1 1 1 0
1 -0 -2 -2 4 -0 -11 -1 -6 -3 -1 1 -1 -8 -0 14 6 -5 -8 -9 3 4 2 2 -0 0 -0 -0 1 2 3 1 1 1 -5 -0 4 2 -4 -14 11 2 -0 -0 1 1 1 0 -0 -1 -1 -1 1 -1
-2 -4 -3 -2 4 -1 -11 -1 1 -0 2 10 -12 5 18 18 36 18 11 -1 2 -0 2 -4 0 -3 -0 1 1 0 1 4 1 0 -3 0 4 2 -18 7 1 0 -1 -1 -1 0 1 1 1 -1 -2 -1 -1 -1
-1 4 4 -2 2 7 -2 -2 -1 0 3 -3 7 -5 9 30 6 1 20 6 0 -6 1 -4 -7 -5 3 -1 0 1 6 1 -3 -3 1 1 1 -10 -1 3 -2 1 3 -1 0 1 1 1 1 2 -0 -0 -1 -1
-2 -2 -7 -3 -4 0 -1 -9 3 -1 -1 -12 -7 9 8 8 12 21 27 -2 11 13 1 -4 -2 -3 -2 3 4 8 0 -1 2 -0 2 -1 -16 8 -6 -5 -1 4 3 -2 -2 4 -1 2 2 2 -0 -3 -1 -1
1 -1 1 -4 -3 -5 2 -3 -5 1 1 -0 9 14 14 16 15 29 7 0 2 2 -5 -2 1 5 4 3 3 3 1 2 -0 -1 1 0 -10 -1 -6 -2 -0 0 0 1 -1 1 1 1 2 -2 2 -0 -0 1
1 2 1 -9 -4 8 -0 -6 -2 2 0 1 16 17 6 21 11 6 0 -3 -2 -7 -3 -2 1 -0 -1 -1 1 -0 1 0 2 2 -1 -3 -6 -1 -5 -2 -2 -0 0 -1 1 -0 2 2 1 0 1 2 2 -1
2 -1 2 5 -10 -6 5 8 5 0 6 4 32 16 15 7 7 -1 -8 -3 -5 -5 -14 -8 -6 -0 3 4 -5 -0 1 0 -0 1 -3 -3 -1 1 -2 2 -1 2 0 -0 1 -1 1 2 2 2 2 2 2 1
-0 6 2 3 13 -2 -11 1 -7 6 11 13 6 5 10 0 2 -2 4 1 -6 -11 -3 3 4 -2 2 1 1 1 1 -1 -0 -2 -1 -2 1 1 1 2 3 3 1 1 1 1 1 1 0 1 1 1 0 1
-1 -3 -2 10 8 13 15 11 -0 14 0 -3 -1 1 -1 3 7 2 -3 -2 -1 -3 -4 -2 2 5 3 1 3 -1 -0 -1 -1 1 2 2 1 0 1 2 3 3 -0 -2 -4 0 2 2 1 1 1 0 1 2
1 6 6 -0 -1 -0 -0 6 0 1 -7 2 6 2 6 3 -6 -5 6 5 2 0 4 -3 5 4 -1 -1 -1 -1 -1 -0 0 1 1 0 1 1 1 1 0 1 -6 -0 4 2 4 3 3 2 2 2 1 1
1 0 9 -2 -3 -1 -1 -0 3 2 -6 3 -1 3 4 1 -3 -1 1 7 -1 1 -6 0 4 2 -3 -2 -1 -1 -2 -3 2 3 2 -0 1 2 0 1 3 4 0 -2 -0 1 2 2 2 1 0 0 0 0
-2 -1 0 1 2 1 -0 0 -1 -2 -2 4 7 -1 1 3 3 6 5 -1 -3 2 2 0 4 3 -0 -2 -1 -1 -2 -2 1 2 1 0 -0 -2 -2 -0 1 -2 -1 -3 -5 4 4 3 2 3 3 3 3 2
-2 -4 -2 1 3 3 1 3 4 1 6 8 5 5 3 0 1 6 2 4 6 7 8 4 1 3 0 -0 -1 -1 -1 -1 -1 2 1 -0 -0 0 -1 -2 0 2 -0 -1 0 -0 -2 -1 2 3 2 0 0 2
-2 1 -1 -2 -4 -3 -1 -1 2 5 7 5 4 0 1 3 -2 1 1 4 8 8 13 3 -2 4 4 1 -1 -1 -1 -1 -1 -0 -0 0 1 1 -0 -1 -1 0 1 2 1 2 2 -0 -2 -3 -3 -2 -2 -4
-1 -1 -2 -2 -0 -1 -2 -2 -2 -1 -2 -1 1 0 -2 -7 -3 3 -3 1 6 3 3 2 0 3 3 2 -1 -1 1 1 1 -0 0 -0 -0 -0 -1 0 1 -1 -2 -3 -0 1 -0 0 2 3 3 4 4 1
-2 -2 -2 -0 -1 -0 -1 1 1 0 -1 -1 2 4 4 4 4 -0 -4 -5 0 -2 3 3 2 3 2 2 0 -1 -0 -0 -1 -2 -3 -2 -1 -2 -2 -3 -0 0 -0 -1 2 1 -3 -4 -3 -3 -1 -1 0 1
-1 -2 -2 -2 -2 -1 -1 -0 -2 -1 0 1 2 -0 -1 -3 -4 -2 -0 1 2 2 0 -0 -2 -1 0 1 -0 -1 -1 -1 -2 -3 -2 -2 -1 -2 -1 -3 -3 -3 0 -1 -2 -2 1 0 1 2 1 -0 1 1
0 -1 -2 -0 -1 -2 -1 -1 -0 0 0 -1 -2 -3 -3 -2 -1 1 -1 -1 1 1 1 0 0 0 -1 -2 -3 -4 -3 -2 -2 -3 -2 -1 -2 -3 -3 -2 -3 -3 -2 -3 -2 -2 -3 -1 1 2 2 0 0 2
-0 -2 1 0 -0 -1 -2 -2 -4 -4 -2 0 -0 -0 -0 -0 -2 -4 -3 -2 -0 -0 0 -1 -2 -2 -2 -2 -2 -4 -4 -1 -2 -0 -1 -1 -3 -2 -2 -3 -2 0 -1 -2 -2 0 -0 -0 -0 -2 -2 -2 -2 -2
-1 -1 -2 -1 -0 0 -1 -2 -1 -1 -1 -2 -3 -2 -2 -2 -2 -0 1 4 3 2 -0 -3 -4 -3 -4 -4 -3 -2 -3 -4 -4 -3 -0 -3 -3 -2 -1 -2 -3 -1 -1 -1 -2 -2 -2 -2 -1 -1 -1 -1 -1 -1
-2 -1 -2 -2 -1 -2 -2 -0 -0 -1 -1 -1 -2 -1 -2 -2 -2 -2 0 -0 -1 -2 -2 -3 -3 -4 -3 -4 -6 -4 -2 -3 -2 -2 -1 -1 -0 -1 -1 -1 -1 -2 -2 -0 -0 0 1 1 0 -1 -2 -2 -3 -3
0 -0 -2 -1 -1 -0 -2 -1 -1 -0 0 0 0 -0 -1 -1 -1 -1 -0 -1 -1 -0 0 1 1 -0 -1 -1 -1 -1 -1 -1 -1 -1 -0 1 1 3 2 -0 0 1 1 0 -0 0 1 0 -0 -1 -2 -1 -0 0
1 -2 -0 -1 -1 -0 -0 -0 -1 -1 1 2 2 1 0 2 1 1 1 1 1 0 -1 -2 -0 -1 -2 -1 -2 -1 -1 -3 -2 -2 -0 2 2 2 2 3 3 2 2 1 1 -0 -0 -1 -1 -1 -0 -0 -0 -1
-1 -0 -0 0 -0 -1 -0 0 0 -0 -0 0 -0 0 1 1 -0 0 1 -0 -2 -2 -1 -1 -1 -1 -2 -3 -3 -3 -3 -2 -2 3 7 5 3 4 4 2 2 2 1 -0 -1 -1 -1 -1 0 0 -0 -2 -2 -3
-1 -1 -0 1 0 -0 0 0 1 0 0 0 -0 -1 0 1 0 -0 -0 -0 -1 -1 0 0 -1 0 1 -2 -3 -1 7 5 0 2 5 7 4 1 -1 -1 0 0 -0 0 0 1 1 1 0 -2 -2 -2 -3 -3
-0 -1 -1 -1 -1 -1 0 0 -0 -0 0 0 0 0 1 0 -1 -1 -1 -0 -0 -0 0 -1 1 5 3 1 1 1 2 3 1 4 1 -2 -4 -2 -1 -0 -0 -1 -1 -0 0 -0 -1 -3 -3 -2 -1 -2 -3 -4
-1 0 0 -1 -1 -0 -1 -0 -0 -1 0 0 0 -0 0 -0 -1 -1 0 0 -0 0 1 0 1 2 1 -0 1 2 2 1 -1 -3 -3 -0 1 1 1 0 -0 -1 -1 -1 -1 -1 -2 -3 -2 -2 -3 -2 -2 -2
Height
2952 2950 2947 2946 2944 2943 2942 2940 2937 2937 2937 2936 2941 2944 2951 2953 2961 2970 2978 2987 2994 3001 3007 3012 3016 3021 3025 3028 3031 3034 3036 3035 3037 3036 3036 3034 3034 3035 3034 3033 3032 3031 3030 3027 3027 3027 3022 3019 3018 3018 3017 3015 3013 3012
2948 2946 2944 2942 2939 2939 2938 2936 2934 2933 2934 2934 2935 2937 2942 2950 2956 2964 2972 2980 2988 2996 3001 3006 3010 3016 3020 3023 3027 3028 3031 3031 3032 3033 3033 3032 3032 3032 3032 3031 3030 3029 3029 3027 3026 3021 3019 3018 3017 3017 3016 3015 3015 3014
2944 2942 2939 2938 2936 2933 2932 2933 2930 2928 2930 2926 2930 2936 2939 2945 2952 2960 2965 2974 2982 2989 2997 3001 3005 3010 3013 3018 3021 3024 3026 3028 3030 3030 3030 3030 3030 3029 3029 3028 3028 3027 3026 3023 3023 3019 3017 3016 3015 3015 3015 3015 3015 3014
2938 2937 2936 2934 2932 2930 2929 2928 2927 2925 2925 2928 2930 2933 2936 2942 2950 2956 2961 2968 2977 2984 2990 2995 2999 3002 3008 3011 3014 3018 3021 3023 3025 3026 3026 3026 3026 3026 3025 3025 3024 3024 3022 3020 3018 3017 3015 3014 3014 3015 3015 3015 3015 3015
2931 2931 2930 2930 2928 2926 2925 2924 2924 2926 2926 2927 2929 2932 2936 2942 2948 2954 2960 2964 2971 2982 2984 2988 2993 2997 3002 3005 3008 3012 3015 3017 3019 3021 3021 3022 3022 3023 3021 3020 3017 3019 3019 3018 3017 3016 3015 3015 3014 3014 3013 3013 3014 3014
2924 2924 2923 2923 2923 2922 2921 2919 2918 2921 2923 2922 2925 2928 2932 2937 2945 2951 2958 2961 2966 2973 2980 2983 2988 2992 2996 2999 3002 3006 3009 3011 3013 3015 3016 3016 3017 3020 3017 3015 3016 3016 3016 3015 3014 3012 3013 3013 3012 3012 3012 3013 3012 3012
2915 2915 2916 2916 2917 2916 2915 2915 2914 2915 2916 2916 2921 2924 2927 2934 2940 2947 2950 2955 2961 2969 2976 2981 2983 2985 2989 2993 2997 3000 3002 3004 3008 3009 3010 3011 3013 3013 3010 3009 3014 3012 3011 3010 3008 3007 3008 3009 3010 3010 3011 3011 3012 3012
2907 2908 2908 2908 2909 2910 2909 2908 2908 2910 2912 2915 2919 2921 2923 2927 2936 2942 2946 2953 2961 2967 2973 2977 2977 2982 2985 2988 2991 2995 2997 3000 3002 3003 3004 3006 3007 3006 3004 3007 3006 3006 3006 3005 3005 3003 3003 3004 3005 3007 3008 3009 3010 3010
2900 2902 2902 2902 2902 2904 2905 2903 2903 2906 2908 2912 2916 2918 2921 2923 2929 2936 2945 2949 2956 2964 2965 2966 2972 2979 2981 2983 2987 2990 2991 2994 2997 2997 3000 3002 2998 2998 3000 3001 3002 3000 2999 2999 2999 2999 2999 2999 3000 3003 3005 3006 3007 3008
2895 2897 2898 2898 2898 2899 2900 2899 2900 2902 2904 2910 2917 2918 2918 2922 2928 2934 2943 2949 2955 2955 2959 2963 2967 2972 2977 2979 2981 2986 2988 2991 2991 2993 2993 2992 2988 2995 2996 2995 2994 2994 2991 2990 2990 2992 2993 2995 2995 2997 3000 3001 3002 3004
2890 2892 2894 2895 2896 2897 2896 2896 2896 2898 2904 2909 2911 2913 2914 2917 2925 2931 2937 2943 2949 2952 2954 2959 2964 2969 2972 2976 2977 2981 2983 2985 2986 2986 2988 2984 2984 2988 2990 2989 2986 2985 2984 2983 2983 2984 2986 2989 2991 2993 2995 2997 2998 3000
2883 2886 2889 2892 2893 2895 2896 2895 2896 2898 2901 2906 2908 2907 2908 2915 2920 2924 2930 2937 2941 2945 2946 2951 2959 2964 2967 2971 2974 2978 2980 2981 2981 2981 2981 2978 2980 2981 2983 2982 2980 2979 2979 2979 2979 2978 2981 2983 2986 2988 2990 2991 2994 2996
2882 2882 2883 2886 2891 2891 2890 2890 2893 2896 2900 2905 2906 2907 2908 2911 2913 2917 2920 2926 2931 2934 2941 2947 2953 2958 2962 2968 2971 2975 2975 2977 2976 2975 2973 2973 2974 2975 2976 2977 2976 2976 2976 2976 2976 2976 2977 2979 2981 2983 2985 2987 2989 2991
2881 2881 2883 2887 2890 2892 2890 2890 2892 2894 2897 2900 2902 2903 2904 2906 2907 2909 2913 2920 2929 2936 2939 2943 2948 2953 2957 2962 2966 2969 2970 2971 2970 2969 2967 2967 2968 2969 2971 2972 2973 2973 2973 2974 2974 2974 2974 2975 2977 2979 2981 2984 2986 2988
2879 2881 2883 2883 2884 2884 2887 2889 2889 2890 2896 2897 2900 2900 2902 2903 2906 2909 2915 2923 2928 2933 2938 2942 2948 2953 2955 2959 2961 2963 2965 2964 2963 2962 2963 2964 2964 2965 2966 2968 2969 2970 2971 2971 2973 2973 2974 2975 2976 2978 2980 2982 2984 2986
2883 2884 2884 2884 2882 2881 2882 2883 2885 2889 2895 2898 2899 2899 2900 2902 2904 2911 2916 2920 2925 2930 2936 2942 2945 2948 2951 2954 2956 2957 2959 2958 2959 2959 2960 2961 2962 2963 2963 2965 2966 2966 2968 2971 2972 2973 2973 2974 2976 2977 2979 2981 2983 2985
2885 2885 2886 2885 2884 2883 2884 2887 2889 2894 2899 2900 2900 2900 2902 2905 2909 2913 2917 2920 2924 2930 2934 2939 2941 2942 2946 2949 2951 2953 2954 2956 2956 2958 2959 2960 2960 2960 2961 2961 2961 2962 2964 2967 2969 2972 2973 2974 2975 2977 2978 2980 2982 2984
2885 2886 2887 2887 2887 2887 2887 2889 2892 2895 2898 2901 2901 2901 2903 2904 2908 2911 2914 2919 2925 2929 2933 2937 2938 2939 2941 2945 2947 2950 2952 2955 2956 2958 2958 2959 2960 2960 2960 2961 2962 2962 2964 2966 2968 2970 2971 2973 2974 2976 2978 2979 2981 2982
2885 2885 2887 2887 2888 2888 2890 2893 2895 2895 2897 2897 2899 2899 2901 2904 2908 2912 2915 2920 2924 2928 2933 2935 2936 2937 2938 2941 2945 2948 2951 2953 2955 2956 2957 2958 2960 2961 2961 2962 2963 2964 2965 2966 2968 2970 2971 2972 2973 2974 2976 2977 2978 2979
2886 2887 2888 2889 2889 2888 2888 2888 2890 2890 2892 2896 2898 2902 2908 2908 2911 2913 2916 2919 2923 2927 2930 2932 2934 2935 2937 2940 2944 2947 2950 2952 2954 2955 2956 2958 2959 2960 2960 2961 2963 2963 2964 2965 2966 2967 2968 2969 2970 2971 2972 2973 2974 2975
2888 2889 2890 2891 2891 2891 2892 2892 2893 2895 2897 2899 2901 2904 2907 2911 2914 2915 2916 2919 2922 2924 2928 2930 2932 2935 2937 2939 2942 2945 2947 2950 2952 2954 2955 2956 2957 2957 2958 2959 2960 2961 2961 2962 2963 2964 2964 2965 2966 2966 2966 2967 2967 2967
2889 2891 2892 2893 2893 2893 2894 2894 2896 2897 2901 2902 2905 2906 2908 2910 2911 2913 2916 2920 2922 2924 2927 2928 2931 2934 2936 2938 2940 2942 2945 2947 2949 2950 2951 2952 2954 2954 2954 2954 2954 2955 2956 2956 2957 2959 2959 2959 2960 2960 2960 2960 2960 2960
2890 2892 2894 2894 2895 2895 2897 2896 2897 2898 2899 2900 2902 2904 2907 2910 2913 2916 2918 2920 2922 2923 2925 2927 2929 2931 2933 2934 2936 2939 2941 2942 2943 2944 2945 2946 2947 2947 2948 2947 2948 2948 2949 2948 2948 2949 2950 2950 2950 2950 2950 2950 2949 2949
2891 2893 2895 2896 2897 2897 2898 2898 2899 2900 2901 2903 2905 2907 2909 2911 2913 2914 2916 2918 2920 2921 2922 2924 2925 2927 2929 2930 2932 2933 2934 2936 2936 2937 2938 2939 2939 2939 2940 2940 2940 2940 2941 2941 2940 2939 2940 2940 2940 2939 2938 2938 2937 2936
2894 2896 2897 2896 2897 2899 2899 2900 2900 2901 2902 2903 2905 2906 2907 2909 2911 2913 2915 2916 2917 2918 2919 2921 2922 2923 2924 2925 2926 2927 2927 2928 2929 2930 2929 2930 2932 2932 2932 2932 2932 2933 2933 2932 2932 2931 2930 2930 2930 2930 2930 2929 2929 2928
2894 2895 2897 2896 2898 2899 2899 2900 2900 2900 2902 2903 2904 2906 2907 2908 2910 2910 2911 2912 2913 2914 2916 2917 2918 2919 2919 2920 2921 2922 2921 2922 2922 2923 2923 2924 2925 2925 2925 2926 2926 2927 2926 2926 2925 2925 2925 2925 2925 2925 2925 2924 2923 2922
2894 2895 2896 2897 2898 2899 2900 2900 2901 2902 2902 2903 2904 2905 2907 2907 2908 2910 2910 2911 2912 2913 2914 2915 2916 2917 2917 2916 2916 2916 2915 2915 2915 2916 2917 2917 2918 2919 2920 2921 2921 2922 2922 2922 2922 2922 2922 2922 2922 2921 2921 2920 2919 2918
2894 2895 2897 2898 2898 2898 2899 2899 2900 2901 2901 2902 2904 2904 2906 2907 2908 2909 2909 2910 2912 2913 2914 2914 2914 2914 2914 2913 2912 2911 2910 2909 2909 2909 2910 2911 2913 2915 2916 2918 2919 2920 2920 2920 2921 2921 2921 2921 2920 2920 2919 2918 2917 2916
2895 2895 2896 2896 2896 2896 2896 2897 2898 2899 2900 2900 2901 2902 2903 2904 2906 2906 2908 2908 2910 2910 2911 2911 2911 2911 2911 2910 2909 2907 2907 2906 2906 2907 2908 2910 2912 2914 2915 2917 2918 2919 2920 2921 2921 2921 2921 2921 2920 2920 2919 2917 2915 2913
2894 2895 2895 2895 2895 2895 2895 2896 2896 2897 2897 2898 2899 2899 2900 2901 2902 2902 2903 2905 2906 2907 2908 2908 2909 2909 2908 2907 2906 2906 2905 2906 2906 2908 2909 2910 2912 2914 2915 2917 2919 2920 2921 2921 2921 2920 2920 2919 2918 2917 2915 2913 2911 2908
2893 2893 2894 2894 2894 2894 2895 2895 2895 2896 2896 2896 2897 2897 2897 2897 2897 2898 2899 2900 2901 2903 2904 2905 2906 2908 2908 2908 2907 2908 2908 2908 2909 2911 2913 2914 2915 2916 2918 2919 2920 2921 2921 2921 2920 2919 2919 2917 2916 2914 2911 2909 2905 2902
2893 2893 2893 2893 2893 2894 2894 2894 2894 2894 2894 2894 2894 2895 2895 2894 2893 2894 2895 2896 2897 2899 2902 2903 2905 2907 2908 2909 2909 2910 2911 2912 2913 2914 2915 2916 2918 2919 2920 2920 2920 2920 2920 2919 2918 2917 2915 2914 2912 2909 2906 2903 2899 2895
2891 2892 2891 2892 2892 2892 2892 2893 2892 2892 2892 2892 2892 2892 2893 2893 2893 2894 2895 2895 2897 2898 2900 2902 2904 2906 2907 2909 2910 2911 2912 2913 2914 2915 2916 2917 2918 2918 2919 2919 2919 2918 2917 2916 2915 2914 2912 2909 2907 2904 2901 2897 2892 2887